Home > Weather > Beaumont > Past weeks

Flag for USA Past Weather in Beaumont, Texas, USA — Yesterday and Last 2 Weeks

Now
77 °F

Clear.


Feels Like: 78 °F
Forecast: 75 / 88 °F
Wind: 8 mph from Northeast

Location: Jefferson County Airport

Current Time: Aug 26, 2016 at 3:48:26 AM

Latest Report: Aug 26, 2016 at 2:53 AM


Visibility: 10 mi

Pressure: 30.01 "Hg

Humidity: 88%

Dew Point: 73 °F

Location of BeaumontLocation

Past Weather in Beaumont — Graph

°F

Beaumont Temperature Yesterday

Maximum temperature yesterday: 93 °F (at 1:53 PM)
Minimum temperature yesterday: 76 °F (at 3:53 AM)
Average temperature yesterday: 83 °F

High & Low Weather Summary for the Past Weeks

 TemperatureHumidityPressure
High93 °F (Aug 23, 2:53 PM)100% (Aug 13, 5:53 PM)30.18 "Hg (Aug 13, 5:53 PM)
Low74 °F (Aug 13, 5:53 PM)54% (Aug 24, 3:53 PM)29.74 "Hg (Aug 13, 3:53 PM)
Average81 °F85%29.99 "Hg
* Reported Aug 11 1:53 AM — Aug 26 1:53 AM, Beaumont, Weather by CustomWeather, © 2016

Note: Actual official high and low records may vary slightly from our data, if they occured in-between our weather recording intervals... More about our weather records

Advertising

Beaumont Weather History for the Previous 24 Hours

Scroll right to see more
 ConditionsComfort  
Time TempWeatherWind HumidityBarometerVisibility
1:53 AM
Fri, Aug 26
77 °FClear.10 mph88%30.02 "Hg10 mi
12:53 AM77 °FPassing clouds.10 mph90%30.04 "Hg10 mi
11:53 PM
Thu, Aug 25
77 °FClear.10 mph90%30.04 "Hg10 mi
10:53 PM78 °FClear.7 mph87%30.03 "Hg10 mi
9:53 PM78 °FPassing clouds.8 mph87%30.01 "Hg10 mi
8:53 PM77 °FPassing clouds.3 mph82%30.02 "Hg10 mi
7:53 PM78 °FThundershowers. Broken clouds.9 mph76%30.02 "Hg10 mi
6:53 PM88 °FThundershowers. Passing clouds.9 mph65%30.01 "Hg10 mi
5:53 PM90 °FSunny.8 mph59%29.98 "Hg10 mi
4:53 PM91 °FSunny.7 mph61%29.99 "Hg10 mi
3:53 PM88 °FScattered clouds.9 mph67%29.99 "Hg10 mi
2:53 PM92 °FMostly cloudy.7 mph58%30.00 "Hg10 mi
1:53 PM93 °FBroken clouds.7 mph54%30.03 "Hg10 mi
12:53 PM92 °FScattered clouds.6 mph54%30.05 "Hg10 mi
11:53 AM91 °FMostly cloudy.6 mph64%30.08 "Hg10 mi
10:53 AM89 °FScattered clouds.6 mph68%30.08 "Hg10 mi
9:53 AM87 °FSunny.8 mph72%30.08 "Hg10 mi
8:53 AM82 °FSunny.8 mph88%30.08 "Hg10 mi
7:53 AM79 °FFog.3 mph94%30.07 "Hg10 mi
6:53 AM77 °FFog.3 mph96%30.07 "Hg6 mi
5:53 AM77 °FClear.No wind94%30.06 "Hg8 mi
4:53 AM77 °FPassing clouds.5 mph94%30.05 "Hg9 mi
3:53 AM76 °FClear.No wind97%30.05 "Hg10 mi
Weather by CustomWeather, © 2016

See weather overviewHow to use our weather pages